Location: Black Swamp Observatory
(41.3920°N, 84.1250°W)
Time: 23:21:11
(UTC-05:00)

Amateur Radio Satellites - All Passes

Search period start: 06 March 2015 22:51
Search period end: 07 March 2015 22:51
Location: Black Swamp Observatory, 41.3920°N, 84.1250°W

Satellite Date Start Highest point End Downlink Frequencies (MHz)
Time Altitude Azimuth
DUCHIFAT 1 06 Mar 23:00:09 23:03:37 25° 94° (E) 23:07:08 145.980
UWE-3 06 Mar 23:05:50 23:08:12 14° 270° (W) 23:10:20 435.000/436.395/437.385
ESTCUBE 1 06 Mar 23:12:58 23:17:30 75° 258° (WSW) 23:22:04 437.505/2401.250
UNISAT 6 06 Mar 23:18:56 23:23:16 80° 102° (ESE) 23:27:39 437.425
POPSAT HIP 1 06 Mar 23:23:33 23:27:38 47° 99° (E) 23:31:42 437.405
POLYITAN 1 06 Mar 23:25:23 23:29:31 50° 100° (E) 23:33:37 437.675
DANDE 06 Mar 23:35:26 23:41:21 43° 97° (E) 23:45:52 436.750
CUSAT 1 06 Mar 23:38:14 23:43:53 54° 98° (E) 23:48:08 437.405
HUMSAT D 06 Mar 23:39:20 23:41:20 13° 270° (W) 23:43:08 437.325/437.525
RS-15 06 Mar 23:40:47 23:51:43 83° 304° (NW) 00:02:51 29.354- 29.394
TIGRISAT 06 Mar 23:41:50 23:46:04 58° 286° (WNW) 23:50:21 435.000
NANOSAT C BR1 06 Mar 23:44:46 23:49:01 84° 100° (E) 23:53:13 145.865
GONETS M04 06 Mar 23:48:18 23:55:24 26° 295° (WNW) 00:02:15
BEESAT 3 06 Mar 23:50:35 23:52:13 12° 37° (NE) 23:53:59 437.485
CUBEBUG 1 06 Mar 23:57:25 00:01:16 27° 265° (W) 00:05:03 437.445
TISAT 1 06 Mar 23:57:47 00:02:02 71° 75° (ENE) 00:06:18 437.305
ANTELSAT 06 Mar 23:58:14 00:02:15 38° 288° (WNW) 00:06:17 437.575/2403.000
BUGSAT 1 07 Mar 00:05:00 00:09:09 77° 283° (WNW) 00:13:12 437.445
SWISSCUBE 07 Mar 00:08:59 00:12:07 18° 64° (ENE) 00:15:25 437.505
SPROUT 07 Mar 00:10:30 00:14:50 76° 258° (WSW) 00:19:11 437.525
BEESAT 07 Mar 00:16:30 00:19:50 20° 65° (ENE) 00:23:19 436.000
QB50P1 07 Mar 00:19:09 00:23:06 39° 288° (WNW) 00:27:01 145.935-145.965
BEESAT 2 07 Mar 00:20:29 00:23:24 18° 43° (NE) 00:26:23 435.950
QB50P2 07 Mar 00:24:46 00:28:37 34° 289° (WNW) 00:32:24 145.880/145.840
DUCHIFAT 1 07 Mar 00:35:52 00:39:28 27° 291° (WNW) 00:42:57 145.980
AIST 2 07 Mar 00:44:22 00:46:41 14° 39° (NE) 00:49:05 435.215
ITUPSAT 1 07 Mar 00:45:42 00:50:03 36° 70° (ENE) 00:54:28 437.325
UNISAT 6 07 Mar 00:58:56 00:59:32 10° 297° (WNW) 00:59:54 437.425
SO-50 07 Mar 00:59:44 01:04:17 70° 121° (ESE) 01:09:03 436.795
POPSAT HIP 1 07 Mar 01:00:37 01:03:12 16° 294° (WNW) 01:05:38 437.405
POLYITAN 1 07 Mar 01:02:40 01:05:05 15° 295° (WNW) 01:07:20 437.675
DANDE 07 Mar 01:19:59 01:24:40 23° 286° (WNW) 01:28:21 436.750
Oscar 19 07 Mar 01:21:53 01:26:07 26° 94° (E) 01:30:27 437.125/150
CUSAT 1 07 Mar 01:23:38 01:26:44 15° 287° (WNW) 01:29:15 437.405
BEESAT 3 07 Mar 01:26:52 01:31:01 85° 56° (ENE) 01:35:06 437.485
ITAMSAT 1 07 Mar 01:33:54 01:34:18 10° 86° (E) 01:35:04 435.822/435.867
SWISSCUBE 07 Mar 01:44:58 01:49:38 52° 260° (W) 01:54:20 437.505
YUBILEINY 07 Mar 01:50:27 01:57:05 24° 63° (ENE) 02:04:02 435.215
BEESAT 07 Mar 01:52:48 01:57:24 47° 261° (W) 02:02:01 436.000
RS-15 07 Mar 01:56:44 02:06:06 30° 332° (NNW) 02:15:30 29.354- 29.394
BEESAT 2 07 Mar 01:57:52 02:01:55 52° 242° (WSW) 02:05:54 435.950
STARS 07 Mar 02:19:58 02:24:08 42° 72° (ENE) 02:28:20 437.465
AIST 2 07 Mar 02:21:37 02:25:54 81° 239° (WSW) 02:30:06 435.215
ITUPSAT 1 07 Mar 02:24:09 02:28:04 24° 266° (W) 02:31:54 437.325
KKS-1 07 Mar 02:24:19 02:28:46 74° 76° (ENE) 02:33:15 437.445
SO-50 07 Mar 02:42:04 02:45:25 19° 321° (NW) 02:48:44 436.795
Oscar 19 07 Mar 03:00:53 03:05:35 37° 291° (WNW) 03:10:15 437.125/150
ITAMSAT 1 07 Mar 03:09:24 03:14:40 89° 102° (ESE) 03:19:53 435.822/435.867
Gurwin Techsat 1B 07 Mar 03:09:29 03:14:48 70° 102° (ESE) 03:20:06 435.225
JAS-2 07 Mar 03:11:52 03:13:54 11° 81° (E) 03:16:38 435.910
AO-7 07 Mar 03:15:21 03:20:00 17° 87° (E) 03:25:11 29.400- 29.500
AUBIESAT-1 07 Mar 03:19:01 03:21:20 18° 62° (ENE) 03:23:49 437.475
M-CUBED/EXP-1 PRIME 07 Mar 03:20:55 03:23:29 21° 63° (ENE) 03:26:13 437.505
PCSat 07 Mar 03:38:14 03:41:30 16° 40° (NE) 03:44:55 145.827
YUBILEINY 07 Mar 03:46:10 03:55:01 77° 265° (W) 04:03:48 435.215
STARS 07 Mar 03:57:47 04:00:51 18° 268° (W) 04:03:46 437.465
KKS-1 07 Mar 04:05:27 04:06:02 10° 273° (W) 04:06:20 437.445
MOZHAYETS 4 07 Mar 04:10:13 04:14:36 47° 72° (ENE) 04:19:01
RS-15 07 Mar 04:15:29 04:23:25 21° 6° (N) 04:31:39 29.354- 29.394
HORYU 2 07 Mar 04:20:22 04:24:51 84° 284° (WNW) 04:29:19 437.375
CUBESAT XI-V 07 Mar 04:49:52 04:50:36 10° 61° (ENE) 04:51:37 437.345
Gurwin Techsat 1B 07 Mar 04:50:57 04:54:17 17° 298° (WNW) 04:57:25 435.225
ITAMSAT 1 07 Mar 04:51:14 04:53:30 13° 300° (WNW) 04:55:31 435.822/435.867
JAS-2 07 Mar 04:52:47 05:00:23 66° 100° (E) 05:08:13 435.910
AUBIESAT-1 07 Mar 04:53:12 04:56:05 26° 260° (W) 04:59:05 437.475
M-CUBED/EXP-1 PRIME 07 Mar 04:55:44 04:58:25 22° 261° (W) 05:01:09 437.505
PRISM 07 Mar 05:05:42 05:07:46 14° 64° (ENE) 05:10:02 437.425
AO-7 07 Mar 05:05:47 05:14:09 86° 108° (ESE) 05:22:27 29.400- 29.500
STRAND 1 07 Mar 05:13:25 05:15:47 14° 61° (ENE) 05:18:24 437.568
PCSat 07 Mar 05:20:20 05:25:48 86° 59° (ENE) 05:31:14 145.827
Cubesat XI-IV 07 Mar 05:36:36 05:38:44 13° 87° (E) 05:41:10 437.490
CUTE-I 07 Mar 05:43:31 05:46:21 15° 88° (E) 05:49:26 437.470
YUBILEINY 07 Mar 05:46:06 05:50:31 14° 283° (WNW) 05:54:18 435.215
MOZHAYETS 4 07 Mar 05:49:08 05:52:09 17° 270° (W) 05:55:01
CUBESAT XI-V 07 Mar 06:22:42 06:27:24 90° 77° (ENE) 06:32:09 437.345
RS-15 07 Mar 06:29:37 06:40:04 41° 39° (NE) 06:51:06 29.354- 29.394
JAS-2 07 Mar 06:38:39 06:44:58 29° 297° (WNW) 06:51:18 435.910
PRISM 07 Mar 06:38:48 06:42:52 53° 259° (W) 06:47:00 437.425
STRAND 1 07 Mar 06:49:13 06:54:23 81° 257° (WSW) 06:59:35 437.568
AIST 1 07 Mar 06:51:38 06:55:54 55° 94° (E) 07:00:13
AO-7 07 Mar 06:59:54 07:06:05 23° 306° (NW) 07:11:59 29.400- 29.500
PCSat 07 Mar 07:06:17 07:08:34 12° 256° (WSW) 07:10:32 145.827
ISS 07 Mar 07:13:43 07:16:38 32° 137° (SE) 07:19:35 145.825
Cubesat XI-IV 07 Mar 07:14:11 07:19:35 80° 285° (WNW) 07:24:56 437.490
CUTE-I 07 Mar 07:21:42 07:27:03 69° 287° (WNW) 07:32:21 437.470
SO-50 07 Mar 07:52:17 07:54:29 13° 34° (NNE) 07:56:50 436.795
GONETS M04 07 Mar 07:59:29 08:07:12 34° 69° (ENE) 08:15:05
CANX-2 07 Mar 08:13:39 08:15:07 12° 88° (E) 08:16:51 2200.000
CUTE 1.7 + AOD 2 07 Mar 08:30:26 08:33:09 17° 91° (E) 08:36:02 437.475
AIST 1 07 Mar 08:31:50 08:34:03 13° 293° (WNW) 08:36:03
RS-15 07 Mar 08:42:02 08:53:26 70° 243° (WSW) 09:05:15 29.354- 29.394
HO-68 07 Mar 08:44:33 08:50:58 35° 96° (E) 08:57:29 435.675
ISS 07 Mar 08:50:07 08:53:04 32° 334° (NNW) 08:56:01 145.825
AAUSAT CUBESAT 2 07 Mar 08:55:06 08:58:02 19° 92° (E) 09:01:07 437.432
Cubesat XI-IV 07 Mar 08:57:08 08:58:55 11° 302° (WNW) 09:00:23 437.490
GOMX 1 07 Mar 09:00:31 09:04:31 38° 97° (E) 09:08:24 467.674
COMPASS 1 07 Mar 09:01:20 09:04:50 25° 94° (E) 09:08:24 437.405
O/OREOS (USA 219) 07 Mar 09:01:35 09:06:09 84° 292° (WNW) 09:10:47 437.305
TIGRISAT 07 Mar 09:07:06 09:08:40 12° 64° (ENE) 09:10:25 435.000
DOVE 4 07 Mar 09:11:21 09:15:10 33° 96° (E) 09:18:57 437.250
BRITE-PL 07 Mar 09:21:28 09:25:54 78° 284° (WNW) 09:30:05 437.365/2234.400
ANTELSAT 07 Mar 09:22:07 09:24:59 18° 67° (ENE) 09:27:58 437.575/2403.000
Oscar 11 07 Mar 09:24:42 09:27:48 20° 92° (E) 09:31:02 145.826/435.025
SO-50 07 Mar 09:31:08 09:36:04 65° 55° (NE) 09:40:57 436.795
DELFI C3 07 Mar 09:32:37 09:35:24 18° 92° (E) 09:38:18 145.870
SEEDS 07 Mar 09:35:47 09:40:03 78° 102° (ESE) 09:44:18 437.485
QB50P1 07 Mar 09:38:02 09:40:20 15° 65° (ENE) 09:42:48 145.935-145.965
QB50P2 07 Mar 09:43:17 09:45:58 17° 66° (ENE) 09:48:49 145.880/145.840
CANX-2 07 Mar 09:47:19 09:51:32 59° 285° (WNW) 09:55:44 2200.000
DUCHIFAT 1 07 Mar 09:53:16 09:56:24 21° 67° (ENE) 09:59:38 145.980
GONETS M04 07 Mar 09:56:00 10:04:27 53° 270° (W) 10:12:51
DX 1 07 Mar 09:57:50 10:00:59 20° 93° (E) 10:04:16 434.975-435.025
CUBEBUG 2 07 Mar 10:05:15 10:09:09 39° 97° (E) 10:13:07 437.445
CUTE 1.7 + AOD 2 07 Mar 10:05:18 10:09:20 41° 287° (WNW) 10:13:20 437.475
POPSAT HIP 1 07 Mar 10:16:33 10:20:29 37° 71° (ENE) 10:24:26 437.405
CUSAT 1 07 Mar 10:17:18 10:19:17 19° 75° (ENE) 10:21:27 437.405
UNISAT 6 07 Mar 10:18:04 10:22:25 71° 75° (ENE) 10:26:42 437.425
DANDE 07 Mar 10:18:26 10:19:48 13° 72° (ENE) 10:21:17 436.750
POLYITAN 1 07 Mar 10:18:38 10:22:36 39° 72° (ENE) 10:26:37 437.675
CINEMA 3 07 Mar 10:18:45 10:22:55 77° 282° (WNW) 10:27:04 145.822/145.860
FUNcube-1 07 Mar 10:19:22 10:23:15 37° 97° (E) 10:27:10 145.935
UKube-1 07 Mar 10:20:14 10:24:09 33° 97° (E) 10:28:05 .
ZACube-1 07 Mar 10:22:30 10:26:27 41° 98° (E) 10:30:27 437.345
AISAT 07 Mar 10:24:55 10:27:42 17° 91° (E) 10:30:37 437.250
50 SAT 07 Mar 10:24:56 10:27:08 15° 91° (E) 10:29:30 437.505
ISS 07 Mar 10:28:24 10:30:14 14° 354° (N) 10:32:04 145.825
AAUSAT CUBESAT 2 07 Mar 10:29:59 10:33:51 35° 289° (WNW) 10:37:41 437.432
VELOX 1 07 Mar 10:31:41 10:34:49 19° 92° (E) 10:38:04 145.980
HO-68 07 Mar 10:32:04 10:38:52 46° 294° (WNW) 10:45:36 435.675
COMPASS 1 07 Mar 10:36:56 10:40:31 27° 290° (WNW) 10:44:02 437.405
NANOSAT C BR1 07 Mar 10:37:19 10:41:32 63° 75° (ENE) 10:45:47 145.865
GOMX 1 07 Mar 10:39:28 10:42:25 18° 294° (WNW) 10:45:10 467.674
TIGRISAT 07 Mar 10:40:39 10:44:59 66° 259° (WSW) 10:49:15 435.000
O/OREOS (USA 219) 07 Mar 10:45:18 10:46:26 11° 313° (NW) 10:47:21 437.305
DOVE 4 07 Mar 10:49:42 10:52:47 19° 293° (WNW) 10:55:43 437.250
UWE-3 07 Mar 10:53:12 10:57:22 70° 284° (WNW) 11:01:32 435.000/436.395/437.385
BUGSAT 1 07 Mar 10:54:46 10:59:01 74° 76° (ENE) 11:03:18 437.445
ANTELSAT 07 Mar 10:57:25 11:01:33 41° 262° (W) 11:05:38 437.575/2403.000
RS-15 07 Mar 10:57:59 11:04:13 15° 261° (W) 11:09:30 29.354- 29.394
Oscar 11 07 Mar 11:00:09 11:04:09 36° 289° (WNW) 11:08:07 145.826/435.025
ESTCUBE 1 07 Mar 11:06:23 11:09:58 23° 93° (E) 11:13:37 437.505/2401.250
DELFI C3 07 Mar 11:06:59 11:10:46 35° 288° (WNW) 11:14:30 145.870
QB50P1 07 Mar 11:11:40 11:15:51 52° 260° (W) 11:20:03 145.935-145.965
SO-50 07 Mar 11:13:02 11:16:10 16° 250° (WSW) 11:19:05 436.795
SEEDS 07 Mar 11:14:53 11:15:20 10° 297° (WNW) 11:15:32 437.485
QB50P2 07 Mar 11:17:30 11:21:36 44° 261° (W) 11:25:42 145.880/145.840
HUMSAT D 07 Mar 11:20:50 11:24:59 81° 284° (WNW) 11:29:07 437.325/437.525
DUCHIFAT 1 07 Mar 11:28:08 11:32:04 35° 263° (W) 11:35:58 145.980
DX 1 07 Mar 11:33:23 11:37:24 36° 290° (WNW) 11:41:22 434.975-435.025
CUBEBUG 2 07 Mar 11:42:48 11:45:38 18° 293° (WNW) 11:48:22 437.445
TISAT 1 07 Mar 11:45:11 11:46:08 11° 88° (E) 11:47:21 437.305
CUBEBUG 1 07 Mar 11:45:40 11:50:00 54° 100° (E) 11:54:17 437.445
POPSAT HIP 1 07 Mar 11:53:24 11:56:33 19° 268° (W) 11:59:34 437.405
POLYITAN 1 07 Mar 11:55:45 11:58:45 18° 268° (W) 12:01:36 437.675
FUNcube-1 07 Mar 11:56:27 11:59:23 18° 293° (WNW) 12:02:14 145.935
UKube-1 07 Mar 11:56:44 12:00:10 23° 293° (WNW) 12:03:30 .
SPROUT 07 Mar 11:58:14 12:01:11 18° 92° (E) 12:04:15 437.525
50 SAT 07 Mar 11:58:38 12:02:23 40° 287° (WNW) 12:06:06 437.505
ZACube-1 07 Mar 11:59:48 12:02:34 17° 293° (WNW) 12:05:13 437.345
AISAT 07 Mar 12:00:22 12:04:37 45° 288° (WNW) 12:08:48 437.250
DANDE 07 Mar 12:02:00 12:03:03 12° 267° (W) 12:04:00 436.750
ISS 07 Mar 12:05:24 12:07:38 17° 14° (NNE) 12:09:52 145.825
VELOX 1 07 Mar 12:07:27 12:11:36 39° 289° (WNW) 12:15:41 145.980
NANOSAT C BR1 07 Mar 12:16:30 12:17:54 11° 272° (W) 12:19:02 145.865
Oscar 19 07 Mar 12:38:43 12:43:26 39° 70° (ENE) 12:48:11 437.125/150
ESTCUBE 1 07 Mar 12:42:48 12:46:57 34° 290° (WNW) 12:51:02 437.505/2401.250
ITAMSAT 1 07 Mar 12:50:13 12:53:38 18° 63° (ENE) 12:57:13 435.822/435.867
Gurwin Techsat 1B 07 Mar 12:53:46 12:56:35 15° 61° (ENE) 12:59:38 435.225
TISAT 1 07 Mar 13:18:17 13:22:28 62° 286° (WNW) 13:26:35 437.305
CUBEBUG 1 07 Mar 13:23:24 13:25:58 15° 296° (WNW) 13:28:22 437.445
SPROUT 07 Mar 13:33:29 13:37:28 38° 289° (WNW) 13:41:24 437.525
ISS 07 Mar 13:41:21 13:44:34 62° 33° (NNE) 13:47:46 145.825
SWISSCUBE 07 Mar 13:45:20 13:49:51 40° 98° (E) 13:54:22 437.505
BEESAT 07 Mar 13:52:54 13:57:29 43° 99° (E) 14:02:04 436.000
AO-7 07 Mar 14:14:13 14:20:44 27° 56° (NE) 14:27:28 29.400- 29.500
KKS-1 07 Mar 14:17:05 14:19:21 14° 90° (E) 14:21:50 437.445
Oscar 19 07 Mar 14:18:40 14:22:56 25° 266° (W) 14:27:05 437.125/150
ITUPSAT 1 07 Mar 14:23:32 14:28:24 88° 105° (ESE) 14:33:14 437.325
ITAMSAT 1 07 Mar 14:27:32 14:32:42 60° 259° (WSW) 14:37:54 435.822/435.867
Gurwin Techsat 1B 07 Mar 14:30:40 14:35:59 77° 257° (WSW) 14:41:21 435.225
YUBILEINY 07 Mar 14:52:31 14:59:09 26° 83° (E) 15:06:08 435.215
JAS-2 07 Mar 15:06:37 15:11:14 26° 62° (ENE) 15:16:27 435.910
HORYU 2 07 Mar 15:18:41 15:23:07 90° 34° (NE) 15:27:35 437.375
ISS 07 Mar 15:18:45 15:20:41 15° 228° (SW) 15:22:33 145.825
BEESAT 3 07 Mar 15:22:11 15:24:34 15° 111° (ESE) 15:27:06 437.485
SWISSCUBE 07 Mar 15:23:42 15:27:30 23° 294° (WNW) 15:31:11 437.505
VERMONT LUNAR 07 Mar 15:24:39 15:27:28 23° 154° (SSE) 15:30:19 437.305
BEESAT 07 Mar 15:31:27 15:35:05 21° 294° (WNW) 15:38:35 436.000
STARS 07 Mar 15:45:50 15:50:15 85° 103° (ESE) 15:54:38 437.465
KKS-1 07 Mar 15:52:04 15:56:24 53° 287° (WNW) 16:00:42 437.445
BEESAT 2 07 Mar 15:52:34 15:56:05 28° 114° (ESE) 15:59:41 435.950
ITUPSAT 1 07 Mar 16:04:01 16:05:40 11° 299° (WNW) 16:07:03 437.325
AO-7 07 Mar 16:04:33 16:12:54 74° 255° (WSW) 16:21:15 29.400- 29.500
PHONESAT 2.4 07 Mar 16:07:12 16:10:11 24° 154° (SSE) 16:13:11 2401.200-2431.200
MOZHAYETS 4 07 Mar 16:07:36 16:08:58 11° 87° (E) 16:10:38
AIST 2 07 Mar 16:20:36 16:23:47 21° 113° (ESE) 16:27:07 435.215
AUBIESAT-1 07 Mar 16:33:29 16:36:39 19° 98° (E) 16:40:05 437.475
M-CUBED/EXP-1 PRIME 07 Mar 16:35:56 16:39:26 23° 99° (E) 16:43:11 437.505
YUBILEINY 07 Mar 16:46:38 16:55:20 67° 281° (WNW) 17:04:07 435.215
JAS-2 07 Mar 16:50:29 16:55:58 49° 263° (W) 17:02:07 435.910
Cubesat XI-IV 07 Mar 16:57:53 17:01:58 23° 65° (ENE) 17:06:12 437.490
BEESAT 3 07 Mar 16:58:18 17:02:18 49° 307° (NW) 17:06:21 437.485
AIST 1 07 Mar 17:00:08 17:02:33 15° 68° (ENE) 17:05:09
VERMONT LUNAR 07 Mar 17:01:35 17:05:02 64° 170° (S) 17:08:31 437.305
CUTE-I 07 Mar 17:04:55 17:09:15 26° 66° (ENE) 17:13:42 437.470
BEESAT 2 07 Mar 17:30:33 17:34:13 29° 312° (NW) 17:37:53 435.950
O/OREOS (USA 219) 07 Mar 17:33:04 17:36:31 21° 55° (NE) 17:40:01 437.305
MOZHAYETS 4 07 Mar 17:42:10 17:46:48 71° 285° (WNW) 17:51:26
PHONESAT 2.4 07 Mar 17:44:42 17:48:18 65° 170° (S) 17:51:56 2401.200-2431.200
AIST 2 07 Mar 17:58:10 18:02:11 39° 309° (NW) 18:06:15 435.215
AO-7 07 Mar 18:03:26 18:07:20 13° 275° (W) 18:10:32 29.400- 29.500
AUBIESAT-1 07 Mar 18:07:26 18:11:40 45° 292° (WNW) 18:16:06 437.475
M-CUBED/EXP-1 PRIME 07 Mar 18:10:19 18:14:24 38° 293° (WNW) 18:18:43 437.505
CUBESAT XI-V 07 Mar 18:20:12 18:23:51 23° 92° (E) 18:27:36 437.345
PRISM 07 Mar 18:22:06 18:25:16 21° 93° (E) 18:28:31 437.425
AIST 1 07 Mar 18:36:21 18:40:37 48° 266° (W) 18:44:49
Cubesat XI-IV 07 Mar 18:36:36 18:41:47 48° 261° (W) 18:47:00 437.490
VERMONT LUNAR 07 Mar 18:39:22 18:42:52 74° 187° (S) 18:46:21 437.305
CUTE-I 07 Mar 18:44:03 18:49:09 42° 262° (W) 18:54:14 437.470
YUBILEINY 07 Mar 18:50:11 18:54:23 13° 306° (NW) 18:57:58 435.215
BRITE-PL 07 Mar 18:55:23 18:58:33 16° 65° (ENE) 19:01:49 437.365/2234.400
STRAND 1 07 Mar 19:00:04 19:04:42 34° 96° (E) 19:09:21 437.568
O/OREOS (USA 219) 07 Mar 19:11:49 19:16:11 42° 253° (WSW) 19:20:28 437.305
HO-68 07 Mar 19:13:56 19:19:39 28° 60° (ENE) 19:25:33 435.675
PHONESAT 2.4 07 Mar 19:23:03 19:26:42 74° 188° (S) 19:30:20 2401.200-2431.200
CUTE 1.7 + AOD 2 07 Mar 19:24:44 19:26:38 13° 65° (ENE) 19:28:45 437.475
AAUSAT CUBESAT 2 07 Mar 19:47:25 19:49:29 14° 65° (ENE) 19:51:44 437.432
CINEMA 3 07 Mar 19:47:31 19:48:10 10° 63° (ENE) 19:49:04 145.822/145.860
COMPASS 1 07 Mar 19:53:37 19:56:29 19° 67° (ENE) 19:59:27 437.405
PRISM 07 Mar 19:57:02 20:00:52 33° 290° (WNW) 20:04:38 437.425
CUBESAT XI-V 07 Mar 19:57:06 20:01:27 37° 289° (WNW) 20:05:42 437.345
PCSat 07 Mar 20:01:47 20:07:12 80° 116° (ESE) 20:12:40 145.827
GOMX 1 07 Mar 20:07:49 20:12:51 48° 73° (ENE) 20:17:38 467.674
DOVE 4 07 Mar 20:16:29 20:21:08 40° 72° (ENE) 20:25:35 437.250
VERMONT LUNAR 07 Mar 20:17:22 20:20:32 32° 203° (SSW) 20:23:40 437.305
Oscar 11 07 Mar 20:20:23 20:23:00 16° 66° (ENE) 20:25:46 145.826/435.025
DELFI C3 07 Mar 20:22:14 20:23:48 12° 65° (ENE) 20:25:33 145.870
SEEDS 07 Mar 20:28:01 20:32:04 53° 74° (ENE) 20:36:11 437.485
BRITE-PL 07 Mar 20:31:03 20:36:37 72° 258° (WSW) 20:41:54 437.365/2234.400
STRAND 1 07 Mar 20:39:23 20:43:51 30° 293° (WNW) 20:48:12 437.568
CANX-2 07 Mar 20:40:10 20:44:23 83° 260° (W) 20:48:37 2200.000
DX 1 07 Mar 20:53:57 20:57:00 19° 66° (ENE) 21:00:10 434.975-435.025
CUTE 1.7 + AOD 2 07 Mar 20:58:01 21:02:10 57° 260° (W) 21:06:20 437.475
RS-15 07 Mar 20:59:01 21:04:55 17° 101° (E) 21:11:38 29.354- 29.394
HO-68 07 Mar 20:59:55 21:06:58 61° 258° (WSW) 21:14:04 435.675
GONETS M04 07 Mar 21:00:56 21:08:37 38° 87° (E) 21:16:28
PHONESAT 2.4 07 Mar 21:01:37 21:04:56 33° 203° (SSW) 21:08:13 2401.200-2431.200
CUBEBUG 2 07 Mar 21:03:44 21:07:44 35° 72° (ENE) 21:11:40 437.445
UKube-1 07 Mar 21:15:25 21:19:10 29° 69° (ENE) 21:23:00 .
FUNcube-1 07 Mar 21:15:33 21:19:19 31° 71° (ENE) 21:23:04 145.935
ZACube-1 07 Mar 21:18:48 21:22:40 34° 71° (ENE) 21:26:32 437.345
CINEMA 3 07 Mar 21:20:11 21:24:53 85° 258° (WSW) 21:29:22 145.822/145.860
AAUSAT CUBESAT 2 07 Mar 21:20:43 21:24:46 51° 261° (W) 21:28:49 437.432
AISAT 07 Mar 21:23:26 21:26:14 17° 65° (ENE) 21:29:12 437.250
COMPASS 1 07 Mar 21:28:06 21:31:58 37° 263° (W) 21:35:50 437.405
VELOX 1 07 Mar 21:29:54 21:32:59 19° 66° (ENE) 21:36:12 145.980
GOMX 1 07 Mar 21:47:15 21:51:12 21° 268° (W) 21:54:51 467.674
PCSat 07 Mar 21:47:32 21:51:20 18° 318° (NW) 21:55:01 145.827
UWE-3 07 Mar 21:50:16 21:54:40 86° 259° (WSW) 21:58:57 435.000/436.395/437.385
DELFI C3 07 Mar 21:54:37 21:58:35 56° 260° (W) 22:02:34 145.870
Oscar 11 07 Mar 21:54:44 21:58:52 46° 261° (W) 22:03:02 145.826/435.025
DOVE 4 07 Mar 21:55:03 21:59:02 23° 267° (W) 22:02:45 437.250
SEEDS 07 Mar 22:06:25 22:08:19 12° 271° (W) 22:10:00 437.485
ESTCUBE 1 07 Mar 22:06:31 22:09:58 22° 67° (ENE) 22:13:33 437.505/2401.250
UNISAT 6 07 Mar 22:11:22 22:13:38 14° 90° (E) 22:16:07 437.425
HUMSAT D 07 Mar 22:12:45 22:16:53 71° 76° (ENE) 22:21:01 437.325/437.525
DX 1 07 Mar 22:28:50 22:33:00 41° 262° (W) 22:37:10 434.975-435.025
TIGRISAT 07 Mar 22:32:41 22:36:08 24° 94° (E) 22:39:43 435.000
BUGSAT 1 07 Mar 22:40:23 22:40:46 10° 88° (E) 22:41:25 437.445
CUBEBUG 2 07 Mar 22:41:10 22:44:33 21° 267° (W) 22:47:47 437.445
CUBEBUG 1 07 Mar 22:41:49 22:46:03 46° 72° (ENE) 22:50:21 437.445
